AAL39 EGLL-KMIA

Flight info

Callsign AAL39
Flight time N/A
Altitude FL320
Route CPT5J CPT L9 TIGWE FELCA NICXI OFSOX BANBA ADARA NATH OMSAT CARAC M201 DRYED KINER JNFOX FLUPS MAPYL G437 ZQA BR49V NICKO VIICE2
Aircraft B77W/H-SDE1E2E3FGHIJ2J3J4J5M1RWXY/LB1D1

Departure

Time 2026-05-07 11:32
Airport London Heathrow Airport (EGLL)

Arrival

Time N/A
Airport Miami International Airport (KMIA)
Time Latitude Longitude Altitude Speed Heading
2026-05-07 11:09 51.47304 -0.46423 90 ft 0 kts 23°
2026-05-07 11:20 51.47299 -0.46426 90 ft 2 kts 23°
2026-05-07 11:21 51.47286 -0.46435 93 ft 1 kts 23°
2026-05-07 11:21 51.47271 -0.46444 94 ft 3 kts 11°
2026-05-07 11:21 51.47255 -0.46447 91 ft 3 kts 346°
2026-05-07 11:21 51.47244 -0.46442 92 ft 3 kts 312°
2026-05-07 11:22 51.47238 -0.46426 92 ft 3 kts 280°
2026-05-07 11:22 51.47236 -0.46395 91 ft 3 kts 271°
2026-05-07 11:22 51.47235 -0.46363 93 ft 3 kts 272°
2026-05-07 11:22 51.47235 -0.46360 93 ft 0 kts 272°
2026-05-07 11:24 51.47235 -0.46361 93 ft 0 kts 272°
2026-05-07 11:24 51.47236 -0.46384 90 ft 3 kts 273°
2026-05-07 11:25 51.47238 -0.46440 90 ft 8 kts 273°
2026-05-07 11:25 51.47241 -0.46559 90 ft 14 kts 271°
2026-05-07 11:25 51.47210 -0.46699 94 ft 14 kts 214°
2026-05-07 11:25 51.47130 -0.46725 90 ft 3 kts 184°
2026-05-07 11:26 51.47085 -0.46743 94 ft 15 kts 210°
2026-05-07 11:26 51.46981 -0.46861 94 ft 20 kts 190°
2026-05-07 11:26 51.46844 -0.46864 91 ft 20 kts 178°
2026-05-07 11:26 51.46755 -0.46937 94 ft 16 kts 249°
2026-05-07 11:27 51.46749 -0.47109 91 ft 16 kts 272°
2026-05-07 11:27 51.46752 -0.47283 90 ft 16 kts 271°
2026-05-07 11:27 51.46751 -0.47456 89 ft 16 kts 266°
2026-05-07 11:27 51.46745 -0.47630 91 ft 16 kts 267°
2026-05-07 11:28 51.46740 -0.47803 90 ft 16 kts 267°
2026-05-07 11:28 51.46745 -0.47976 92 ft 16 kts 272°
2026-05-07 11:28 51.46745 -0.48150 93 ft 16 kts 267°
2026-05-07 11:28 51.46744 -0.48323 90 ft 16 kts 271°
2026-05-07 11:29 51.46745 -0.48496 91 ft 16 kts 267°
2026-05-07 11:29 51.46739 -0.48648 90 ft 9 kts 264°
2026-05-07 11:29 51.46709 -0.48725 93 ft 9 kts 211°
2026-05-07 11:29 51.46651 -0.48748 92 ft 9 kts 193°
2026-05-07 11:30 51.46590 -0.48776 92 ft 10 kts 196°
2026-05-07 11:30 51.46514 -0.48761 92 ft 12 kts 149°
2026-05-07 11:30 51.46480 -0.48646 94 ft 12 kts 94°
2026-05-07 11:30 51.46480 -0.48637 93 ft 0 kts 93°
2026-05-07 11:31 51.46480 -0.48635 93 ft 0 kts 93°
2026-05-07 11:31 51.46480 -0.48630 93 ft 1 kts 93°
2026-05-07 11:31 51.46479 -0.48552 91 ft 20 kts 90°
2026-05-07 11:31 51.46479 -0.48061 89 ft 78 kts 90°
2026-05-07 11:32 51.46490 -0.44906 114 ft 193 kts 90°
2026-05-07 11:32 51.46501 -0.42665 462 ft 209 kts 89°
2026-05-07 11:32 51.46514 -0.40335 1228 ft 209 kts 90°
2026-05-07 11:33 51.46075 -0.38044 1436 ft 231 kts 130°
2026-05-07 11:33 51.44686 -0.36629 1689 ft 251 kts 170°
2026-05-07 11:33 51.42968 -0.36895 2331 ft 250 kts 203°
2026-05-07 11:33 51.41486 -0.38306 3073 ft 251 kts 223°
2026-05-07 11:34 51.40406 -0.40479 3693 ft 253 kts 248°
2026-05-07 11:34 51.40089 -0.43220 4271 ft 254 kts 278°
2026-05-07 11:34 51.40390 -0.46007 4840 ft 258 kts 283°
2026-05-07 11:34 51.40748 -0.48829 5540 ft 257 kts 283°
2026-05-07 11:35 51.41098 -0.51657 5996 ft 260 kts 282°
2026-05-07 11:35 51.41442 -0.54526 5991 ft 264 kts 282°
2026-05-07 11:35 51.41775 -0.57398 6014 ft 262 kts 282°
2026-05-07 11:35 51.42100 -0.60264 6005 ft 262 kts 282°
2026-05-07 11:36 51.42417 -0.63132 5987 ft 262 kts 282°
2026-05-07 11:36 51.42732 -0.65992 6001 ft 260 kts 281°
2026-05-07 11:36 51.43041 -0.68844 6000 ft 260 kts 281°
2026-05-07 11:36 51.43348 -0.71689 6003 ft 260 kts 281°
2026-05-07 11:37 51.43655 -0.74543 6002 ft 261 kts 281°
2026-05-07 11:37 51.43991 -0.77390 5998 ft 261 kts 282°
2026-05-07 11:37 51.44341 -0.80239 6008 ft 261 kts 282°
2026-05-07 11:37 51.44692 -0.83085 5993 ft 261 kts 282°
2026-05-07 11:38 51.45043 -0.85944 5986 ft 262 kts 282°
2026-05-07 11:38 51.45388 -0.88803 5996 ft 262 kts 282°